Location: Apeadero de Los Molinos-Guadarrama
(40.7091°N, 4.0689°W)
Time: 12:24:53
(UTC+00:00)

Cosmos 1461 - Pass Details

Date: 14 May 2021
Orbit: 510 x 653 km, 65.0° (Epoch: 18 June)

Event Time Altitude Azimuth Distance (km) Brightness Sun altitude
Exits shadow 21:43:42 26° 76° (ENE) 1,267 4.4 -21.1°
Drops below altitude 10° 21:46:17 10° 50° (NE) 2,047 5.7 -21.4°
Sets 21:48:43 0° 41° (NE) 2,947 6.7 -21.7°
